This is the latest recevied weather packets stored in our database for station/object KA1CNF. If no packets are shown the sender has not sent any weather packets the latest 10 day(s).
| Time | Temp. | Humidity | Pressure | Rain* | Wind** | Luminosity | Snow |
|---|---|---|---|---|---|---|---|
| 1777582855 | 10° C | 65% | 1009.4 hPa | 0 mm | - | 161 W/m² | - |
| 1777564817 | 11.67° C | 78% | 1008.7 hPa | 0 mm | - | 317 W/m² | - |
| 1777536035 | 6.67° C | 98% | 1006.3 hPa | 0.25 mm | - | 0 W/m² | - |
| 1777512616 | 7.78° C | 98% | 1005.3 hPa | 0.25 mm | - | 0 W/m² | - |
| 1777501816 | 8.33° C | 96% | 1004.9 hPa | 3.05 mm | - | 8 W/m² | - |
| 1777500016 | 10° C | 97% | 1004.7 hPa | 1.02 mm | - | 13 W/m² | - |
| 1777489217 | 11.11° C | 94% | 1006.5 hPa | 0.76 mm | - | 42 W/m² | - |
| 1777483817 | 12.78° C | 85% | 1007.5 hPa | 0 mm | - | 39 W/m² | - |
| 1777469416 | 13.33° C | 87% | 1009.8 hPa | 0 mm | - | 187 W/m² | - |
| 1777447815 | 11.11° C | 92% | 1010.8 hPa | 0 mm | - | 0 W/m² | - |
| 1777442416 | 11.11° C | 90% | 1010.9 hPa | 0 mm | - | 0 W/m² | - |
| 1777431616 | 12.78° C | 81% | 1011.4 hPa | 0 mm | - | 0 W/m² | - |
| 1777428037 | 13.33° C | 79% | 1011.4 hPa | 0 mm | - | 0 W/m² | - |
| 1777426236 | 13.89° C | 77% | 1011.3 hPa | 0 mm | - | 0 W/m² | - |
| 1777413616 | 17.22° C | 66% | 1010.8 hPa | 0 mm | - | 40 W/m² | - |
| 1777408236 | 18.33° C | 61% | 1010.5 hPa | 0 mm | - | 234 W/m² | - |
| 1777402816 | 16.11° C | 64% | 1011.3 hPa | 0 mm | - | 187 W/m² | - |
| 1777395637 | 16.11° C | 62% | 1011.2 hPa | 0 mm | - | 180 W/m² | - |
| 1777390218 | 16.67° C | 54% | 1011.6 hPa | 0 mm | - | 166 W/m² | - |
| 1777383017 | 16.67° C | 54% | 1010.7 hPa | 0 mm | - | 273 W/m² | - |
| 1777379457 | 15° C | 59% | 1010.9 hPa | 0 mm | - | 93 W/m² | - |
| 1777375816 | 15° C | 61% | 1011.1 hPa | 0 mm | - | 106 W/m² | - |
| 1777368616 | 15° C | 61% | 1012.3 hPa | 0 mm | - | 0 W/m² | - |
| 1777363216 | 15.56° C | 60% | 1013.1 hPa | 0 mm | - | 0 W/m² | - |
| 1777361416 | 15.56° C | 60% | 1013.4 hPa | 0 mm | - | 0 W/m² | - |
* Rain latest hour (hover to see other rain measurements)
** Current wind speed in m/s (hover to see current wind gust speed)